Tracking 21045 objects as of 4-Aug-2020
HD Live streaming from Space Station
objects crossing your sky now

PSLV DEB

Track PSLV DEB now!
10-day predictions


NORAD ID: 27127
Int'l Code: 2001-049BX
Perigee: 557.4 km
Apogee: 607.6 km
Inclination: 97.6 °
Period: 96.2 minutes
Semi major axis: 6953 km
RCS: 0.304 m2 (medium)
Launch date: October 22, 2001
Source: India (IND)
Launch site: SRIHARIKOTA (SRI)

Note: This is SATELLITE DEBRIS
aabbcc
Your satellite tracking list
Your tracking list is empty




NASA's NSSDC Master Catalog

Two Line Element Set (TLE):
1 27127U 01049BX  20216.86367892 +.00000556 +00000-0 +52307-4 0  9990
2 27127 097.5608 199.9322 0036055 085.9144 321.6944 14.97258424339438
Source of the keplerian elements: AFSPC